Find Thor III

NORAD ID: 25358 Int'l Des: 1998-035 Owner: TNOR Country: N operational
HEOCIRCULAR

リアルタイム位置

3D地球を読み込み中...

Thor IIIについて

説明を読み込み中...

次回通過

Passes for default location (London). Set your location on the main map for personalized predictions.

高度履歴

Loading altitude history...

軌道要素

1 25358U 98035A 26107.11572715 -.00000207 00000-0 00000-0 0 9993
2 25358 11.6852 39.5212 0003068 218.3722 339.8274 0.98831441101884
Epoch: Apr 17, 2026 • Age: 14 hours

現在のステータス

高度 36207.2 km
速度 3.06 km/s
衛星直下点 7.54°N, 12.74°W
打ち上げ日 Jun 10, 1998
運用期間 27.8 years
タイプ other

技術仕様

分類 Payload
質量 821.00 kg
乾燥質量 650.00 kg
総質量 1451.00 kg
長さ 7.80 m
直径 2.20 m
スパン 7.80 m
形状 Cyl
製造者 HSES
バスタイプ HS-376HP
フェーズステータス In Orbit
所有者/国 TNOR/N

Most Searched